Location: Shenandoah County Park
(38.9356°N, 78.4524°W)
Time: 19:10:12
(UTC-05:00)

N. Korean satellite - Pass Details

Date: 05 December 2021
Orbit: 447 x 490 km, 97.3° (Epoch: 26 January)

Event Time Altitude Azimuth Distance (km) Brightness Sun altitude
Rises 05:37:28 0° 8° (N) 2,458 10.1 -18.9°
Reaches altitude 10° 05:39:31 10° 5° (N) 1,580 9.1 -18.5°
Maximum altitude 05:42:52 63° 284° (WNW) 502 6.3 -17.9°
Drops below altitude 10° 05:46:11 10° 202° (SSW) 1,568 9.1 -17.3°
Sets 05:48:13 0° 199° (SSW) 2,438 10.1 -16.9°
